GW4436 Weather Reports


Display with metric or nautical units.
time (UTC)temp
F
wind
direction
speed
MPH
gust
MPH
rain 1hr
in
rain 24hr
in
rain mn
in
humidity
%
barometer
mb
20260903083024 76 9 2.0 2.0 0.00 0.01 0.00 96 1016.0
20260903081505 76 9 1.0 2.0 0.00 0.01 0.00 96 1015.9
20260903080011 76 18 1.0 3.0 0.00 0.01 0.00 96 1016.0
20260903074509 76 5 1.0 3.0 0.00 0.01 0.00 96 1016.2
20260903073022 77 13 1.0 2.0 0.00 0.01 0.00 96 1016.2
20260903071524 77 13 0.0 2.0 0.00 0.01 0.00 96 1016.3
20260903070005 77 13 1.0 3.0 0.00 0.01 0.00 96 1016.5
20260903064508 77 13 0.0 2.0 0.00 0.01 0.00 95 1016.6
20260903063019 77 13 1.0 2.0 0.00 0.01 0.00 95 1016.8
20260903061524 77 13 0.0 2.0 0.00 0.01 0.00 95 1016.8
20260903060031 77 13 0.0 2.0 0.00 0.01 0.00 95 1017.1
20260903054512 77 13 0.0 2.0 0.00 0.01 0.00 95 1017.2
20260903053016 77 56 0.0 2.0 0.00 0.01 0.00 95 1017.2
20260903051523 77 57 1.0 2.0 0.00 0.01 0.00 95 1017.2
20260903044517 77 30 1.0 2.0 0.00 0.01 0.00 95 1017.3
20260903043004 77 68 0.0 2.0 0.00 0.01 0.00 95 1017.4
20260903041510 77 68 1.0 2.0 0.00 0.01 0.00 95 1017.4
20260903040004 77 68 0.0 1.0 0.00 0.01 0.00 95 1017.4
20260903034506 77 68 1.0 2.0 0.00 0.01 0.01 94 1017.6
20260903033008 77 68 1.0 1.0 0.00 0.01 0.01 94 1017.5
20260903031509 78 68 0.0 2.0 0.00 0.01 0.01 93 1017.7
20260903030004 78 68 0.0 2.0 0.00 0.01 0.01 93 1017.6
20260903024506 78 68 0.0 2.0 0.00 0.01 0.01 93 1017.8
20260903023012 78 68 0.0 0.0 0.00 0.01 0.01 93 1017.7
20260903021510 79 68 0.0 0.0 0.00 0.01 0.01 92 1017.9
20260903020003 79 68 0.0 1.0 0.00 0.01 0.01 91 1017.8
20260903014505 79 68 0.0 0.0 0.00 0.01 0.01 91 1017.8
20260903013007 80 68 0.0 0.0 0.00 0.01 0.01 90 1017.6
20260903011513 80 68 0.0 2.0 0.00 0.01 0.01 90 1017.6
20260903010015 80 68 0.0 2.0 0.00 0.01 0.01 88 1017.4
20260903004504 80 114 0.0 2.0 0.00 0.01 0.01 88 1017.4
20260903003008 81 122 0.0 2.0 0.00 0.01 0.01 88 1017.1
20260903001513 81 35 1.0 2.0 0.00 0.01 0.01 87 1017.1
20260903000022 81 44 0.0 3.0 0.00 0.01 0.01 86 1017.3
20260902234516 82 82 1.0 2.0 0.00 0.01 0.01 85 1017.4
20260902233004 82 52 2.0 4.0 0.00 0.01 0.01 84 1017.1
20260902231521 83 56 2.0 4.0 0.00 0.01 0.01 84 1017.2
20260902230023 83 42 1.0 6.0 0.00 0.01 0.01 83 1017.2
20260902224520 84 25 3.0 8.0 0.00 0.01 0.01 80 1017.2
20260902223023 85 67 5.0 12.0 0.00 0.01 0.01 78 1017.3
20260902221508 85 85 4.0 11.0 0.00 0.01 0.01 78 1017.3
20260902220015 87 72 7.0 12.0 0.00 0.01 0.01 75 1017.1
20260902214523 87 62 6.0 10.0 0.00 0.01 0.01 75 1017.1
20260902213023 87 81 6.0 13.0 0.00 0.01 0.01 74 1017.1
20260902211527 87 32 6.0 13.0 0.00 0.01 0.01 76 1017.3
20260902210026 87 53 9.0 16.0 0.00 0.01 0.01 76 1017.1
20260902204529 86 91 5.0 10.0 0.00 0.01 0.01 80 1017.1
20260902203024 83 26 0.0 4.0 0.00 0.01 0.01 84 1017.4
20260902201527 84 94 1.0 16.0 0.00 0.01 0.01 78 1017.7
20260902200030 88 86 5.0 10.0 0.00 0.01 0.01 73 1017.4
20260902194518 89 82 5.0 11.0 0.00 0.01 0.01 69 1017.3
20260902193026 88 54 6.0 10.0 0.00 0.01 0.01 72 1017.5
20260902191506 88 359 3.0 9.0 0.00 0.01 0.01 71 1017.5
20260902190048 89 29 7.0 12.0 0.00 0.05 0.01 71 1017.5
20260902184523 89 37 7.0 11.0 0.00 0.07 0.01 71 1017.6
20260902183020 89 88 7.0 14.0 0.00 0.07 0.01 72 1017.7
20260902181527 88 110 4.0 10.0 0.00 0.07 0.01 73 1017.8
20260902180014 88 93 2.0 9.0 0.00 0.13 0.01 76 1018.0
20260902174533 87 88 3.0 8.0 0.00 0.27 0.01 76 1018.2
20260902173016 86 50 1.0 6.0 0.00 0.27 0.01 83 1018.3
20260902171504 85 324 2.0 8.0 0.00 0.27 0.01 84 1018.5
20260902170026 84 1 4.0 11.0 0.01 0.27 0.01 82 1018.8
20260902164512 86 359 5.0 8.0 0.01 0.27 0.01 82 1018.9
20260902163002 85 245 1.0 4.0 0.01 0.27 0.01 85 1018.9
20260902161507 84 72 0.0 4.0 0.01 0.27 0.01 87 1019.3
20260902160006 83 58 0.0 9.0 0.00 0.26 0.00 85 1019.6
20260902154510 85 8 6.0 9.0 0.00 0.26 0.00 79 1019.5
20260902153033 84 18 6.0 12.0 0.00 0.26 0.00 81 1019.5
20260902151503 85 18 3.0 8.0 0.00 0.26 0.00 83 1019.4
20260902150006 85 5 5.0 8.0 0.00 0.26 0.00 82 1019.4
20260902144507 84 15 5.0 9.0 0.00 0.26 0.00 83 1019.5
20260902143034 83 31 5.0 12.0 0.00 0.26 0.00 84 1019.5
20260902141525 81 8 3.0 6.0 0.00 0.26 0.00 95 1019.4
20260902140004 80 27 2.0 8.0 0.00 0.26 0.00 97 1019.4
20260902134510 79 23 2.0 4.0 0.00 0.26 0.00 98 1019.3
20260902133016 79 36 1.0 5.0 0.00 0.26 0.00 98 1019.2
20260902131518 78 360 3.0 5.0 0.00 0.26 0.00 97 1019.2
20260902130024 77 1 3.0 5.0 0.00 0.26 0.00 97 1019.1
20260902124505 77 1 2.0 4.0 0.00 0.26 0.00 97 1019.2
20260902123031 76 1 1.0 5.0 0.00 0.26 0.00 97 1019.0
20260902121533 76 39 3.0 4.0 0.00 0.26 0.00 97 1019.2
20260902120035 75 8 2.0 4.0 0.00 0.26 0.00 97 1019.1
20260902114529 75 5 1.0 2.0 0.00 0.26 0.00 97 1018.9
20260902113017 75 359 2.0 3.0 0.00 0.26 0.00 97 1018.8
20260902111516 75 359 2.0 3.0 0.00 0.26 0.00 97 1018.7
20260902110024 75 5 2.0 3.0 0.00 0.26 0.00 97 1018.6
20260902104532 75 359 1.0 3.0 0.00 0.26 0.00 97 1018.6
20260902103006 75 355 2.0 2.0 0.00 0.26 0.00 97 1018.4
20260902101512 75 13 1.0 2.0 0.00 0.26 0.00 97 1018.2
20260902100018 75 13 1.0 2.0 0.00 0.26 0.00 97 1018.2
20260902094527 75 360 2.0 2.0 0.00 0.26 0.00 97 1018.0
20260902093029 75 360 1.0 3.0 0.00 0.26 0.00 97 1017.9
20260902091512 75 359 2.0 3.0 0.00 0.26 0.00 97 1017.8
20260902090017 75 356 2.0 2.0 0.00 0.26 0.00 97 1017.9
20260902084531 75 356 2.0 3.0 0.00 0.26 0.00 97 1017.9